Location: Burbank
(38.7788°N, 114.0429°W)
Time: 20:05:48
(UTC+00:00)

Vanguard 2 Rocket - Pass Details

Date: 20 May 2026
Orbit: 553 x 3286 km, 32.9° (Epoch: 6 June)

Event Time Altitude Azimuth Distance (km) Brightness Sun altitude
Rises 18:36:57 0° 258° (WSW) 4,829 10.5 67.8°
Reaches altitude 10° 18:39:37 10° 255° (WSW) 4,136 10.3 68.1°
Maximum altitude 18:51:38 70° 175° (S) 2,688 12.0 69.3°
Drops below altitude 10° 19:10:37 10° 97° (E) 6,187 11.4 70.7°
Sets 19:15:40 0° 96° (E) 7,261 11.6 71.0°
